timestamp,surface_pressure_avg,surface_temp_avg,battery_voltage,lat,long
2022-07-05 00:09:01+00:00,265.7531,16.22,12.09,47.84626,-54.09684
2022-07-05 00:19:01+00:00,269.4464,16.27,12.01,47.84626,-54.09684
2022-07-05 00:29:01+00:00,275.2764,16.4,12.01,47.84626,-54.09684
2022-07-05 00:39:01+00:00,278.688,16.49,12.01,47.84626,-54.09684
2022-07-05 00:49:01+00:00,281.7715,16.5,12.01,47.84626,-54.09684
2022-07-05 00:59:01+00:00,285.603,16.68,12.01,47.84626,-54.09684
2022-07-05 01:09:01+00:00,292.0613,16.8,12.01,47.84626,-54.09684
2022-07-05 01:19:01+00:00,296.8064,16.8,12.01,47.84626,-54.09684
2022-07-05 01:29:01+00:00,300.7197,16.65,12.01,47.84626,-54.09684
2022-07-05 01:39:01+00:00,306.7997,16.4,12.01,47.84626,-54.09684
2022-07-05 01:49:01+00:00,317.3846,16.4,12.01,47.84626,-54.09684
2022-07-05 01:59:01+00:00,321.3929,16.58,12.01,47.84626,-54.09684
2022-07-05 02:09:01+00:00,323.333,16.6,12.01,47.84626,-54.09684
2022-07-05 02:19:01+00:00,332.1364,16.5,12.01,47.84626,-54.09684
2022-07-05 02:29:01+00:00,339.0729,16.7,12.01,47.84626,-54.09684
2022-07-05 02:39:01+00:00,340.7996,16.6,12.01,47.84626,-54.09684
2022-07-05 02:49:01+00:00,343.4547,16.5,12.01,47.84626,-54.09684
2022-07-05 02:59:01+00:00,346.963,16.5,12.01,47.84626,-54.09684
2022-07-05 03:09:01+00:00,344.3679,16.5,12.01,47.84626,-54.09684
2022-07-05 03:19:00+00:00,342.4813,16.5,12.01,47.84626,-54.09684
2022-07-05 03:29:00+00:00,342.8829,16.5,12.01,47.84626,-54.09684
2022-07-05 03:39:00+00:00,342.9430000000001,16.5,12.01,47.84626,-54.09684
2022-07-05 03:49:00+00:00,340.3246,16.5,12.01,47.84626,-54.09684
2022-07-05 03:59:00+00:00,336.98800000000006,16.5,12.01,47.84626,-54.09684
2022-07-05 04:09:00+00:00,337.5863,16.49,12.01,47.84626,-54.09684
2022-07-05 04:19:00+00:00,335.923,16.5,12.01,47.84626,-54.09684
2022-07-05 04:29:00+00:00,334.6029,16.5,12.01,47.84626,-54.09684
2022-07-05 04:39:00+00:00,335.543,16.5,12.01,47.84626,-54.09684
2022-07-05 04:49:00+00:00,334.413,16.5,12.01,47.84626,-54.09684
2022-07-05 04:59:00+00:00,327.9513,16.6,12.01,47.84626,-54.09684
2022-07-05 05:09:00+00:00,325.0563,16.67,12.01,47.84626,-54.09684
2022-07-05 05:19:01+00:00,326.188,16.87,12.01,47.84626,-54.09684
2022-07-05 05:29:01+00:00,322.1563,16.89,12.01,47.84626,-54.09684
2022-07-05 05:39:01+00:00,316.1263,16.8,12.01,47.84626,-54.09684
2022-07-05 05:49:01+00:00,313.7664,16.99,12.01,47.84626,-54.09684
2022-07-05 05:59:01+00:00,310.0847,17.0,12.01,47.84626,-54.09684
2022-07-05 06:09:01+00:00,303.358,16.74,12.01,47.84626,-54.09684
2022-07-05 06:19:01+00:00,299.9564,16.6,12.01,47.84626,-54.09684
2022-07-05 06:29:01+00:00,293.783,16.6,12.01,47.84626,-54.09684
2022-07-05 06:39:01+00:00,282.5714,16.65,12.01,47.84626,-54.09684
2022-07-05 06:49:01+00:00,274.8431,16.67,12.01,47.84626,-54.09684
2022-07-05 06:59:01+00:00,270.7031,16.69,12.01,47.84626,-54.09684
2022-07-05 07:09:01+00:00,261.1897,16.69,12.01,47.84626,-54.09684
2022-07-05 07:19:00+00:00,250.4331,16.65,12.01,47.84626,-54.09684
2022-07-05 07:29:00+00:00,246.0397,16.67,12.01,47.84626,-54.09684
2022-07-05 07:39:00+00:00,241.7598,16.7,12.01,47.84626,-54.09684
2022-07-05 07:49:00+00:00,232.7131,16.76,12.01,47.84626,-54.09684
2022-07-05 07:59:00+00:00,225.0848,16.79,12.01,47.84626,-54.09684
2022-07-05 08:09:00+00:00,224.9615,16.8,12.01,47.84626,-54.09684
2022-07-05 08:19:01+00:00,221.0614,16.8,12.01,47.84626,-54.09684
2022-07-05 08:29:01+00:00,211.7881,16.95,12.01,47.84626,-54.09684
2022-07-05 08:39:01+00:00,209.2281,16.9,12.01,47.84626,-54.09684
2022-07-05 08:49:01+00:00,213.2865,16.7,12.01,47.84626,-54.09684
2022-07-05 08:59:01+00:00,211.9664,16.7,12.01,47.84626,-54.09684
2022-07-05 09:09:01+00:00,205.9681,16.7,12.01,47.84626,-54.09684
2022-07-05 09:19:00+00:00,207.9931,16.7,12.01,47.84626,-54.09684
2022-07-05 09:29:00+00:00,213.6132,16.7,12.01,47.84626,-54.09684
2022-07-05 09:39:00+00:00,208.2298,16.71,12.01,47.84626,-54.09684
2022-07-05 09:49:00+00:00,204.0014,16.78,12.01,47.84626,-54.09684
2022-07-05 09:59:00+00:00,211.1581,16.76,12.01,47.84626,-54.09684
2022-07-05 10:09:00+00:00,217.2998,16.7,12.01,47.84626,-54.09684
2022-07-05 10:19:00+00:00,214.8714,16.7,12.09,47.84626,-54.09684
2022-07-05 10:29:00+00:00,215.6031,16.78,12.09,47.84626,-54.09684
2022-07-05 10:39:00+00:00,220.7031,16.7,12.09,47.84626,-54.09684
2022-07-05 10:49:00+00:00,223.1581,16.7,12.09,47.84626,-54.09684
2022-07-05 10:59:00+00:00,224.0748,16.7,12.09,47.84626,-54.09684
2022-07-05 11:09:00+00:00,229.7614,16.6,12.09,47.84626,-54.09684
2022-07-05 11:19:00+00:00,234.6048,16.3,12.17,47.84626,-54.09684
2022-07-05 11:29:00+00:00,238.0431,16.4,12.17,47.84626,-54.09684
2022-07-05 11:39:00+00:00,240.6197,16.5,12.17,47.84626,-54.09684
2022-07-05 11:49:00+00:00,242.7281,16.5,12.17,47.84626,-54.09684
2022-07-05 11:59:00+00:00,247.2564,16.5,12.17,47.84626,-54.09684
2022-07-05 12:09:00+00:00,251.2031,16.58,12.17,47.84626,-54.09684
2022-07-05 12:19:00+00:00,252.0514,16.6,12.25,47.84626,-54.09684
2022-07-05 12:29:00+00:00,253.3365,16.49,12.25,47.84626,-54.09684
2022-07-05 12:39:00+00:00,257.5964,16.49,12.25,47.84626,-54.09684
2022-07-05 12:49:00+00:00,259.5264,16.49,12.25,47.84626,-54.09684
2022-07-05 12:59:00+00:00,262.6481,16.48,12.25,47.84626,-54.09684
2022-07-05 13:09:00+00:00,268.8297,16.48,12.25,47.84626,-54.09684
2022-07-05 13:19:01+00:00,273.4664,16.4,12.33,47.84626,-54.09684
2022-07-05 13:29:01+00:00,275.4081,16.4,12.33,47.84626,-54.09684
2022-07-05 13:39:01+00:00,282.2581,16.4,12.33,47.84626,-54.09684
2022-07-05 13:49:01+00:00,290.9231,16.3,12.33,47.84626,-54.09684
2022-07-05 13:59:01+00:00,293.0564,16.34,12.33,47.84626,-54.09684
2022-07-05 14:09:01+00:00,295.2913,16.3,12.33,47.84626,-54.09684
2022-07-05 14:19:00+00:00,303.4797,15.8,12.33,47.84626,-54.09684
2022-07-05 14:29:00+00:00,308.6214,15.4,12.33,47.84626,-54.09684
2022-07-05 14:39:00+00:00,308.953,15.79,12.33,47.84626,-54.09684
2022-07-05 14:49:00+00:00,315.83799999999997,14.85,12.33,47.84626,-54.09684
2022-07-05 14:59:00+00:00,323.0847,14.6,12.33,47.84626,-54.09684
2022-07-05 15:09:00+00:00,324.453,14.7,12.33,47.84626,-54.09684
2022-07-05 15:19:00+00:00,323.9597,14.7,12.33,47.84626,-54.09684
2022-07-05 15:29:00+00:00,326.3297,14.77,12.33,47.84626,-54.09684
2022-07-05 15:39:00+00:00,328.3929,14.8,12.33,47.84626,-54.09684
2022-07-05 15:49:00+00:00,325.1513,14.9,12.33,47.84626,-54.09684
2022-07-05 15:59:00+00:00,324.468,14.97,12.33,47.84626,-54.09684
2022-07-05 16:09:00+00:00,327.4646,14.79,12.33,47.84626,-54.09684
2022-07-05 16:19:00+00:00,331.5114,14.4,12.33,47.84626,-54.09684
2022-07-05 16:29:00+00:00,327.533,14.65,12.33,47.84626,-54.09684
2022-07-05 16:39:00+00:00,325.4696,14.7,12.33,47.84626,-54.09684
2022-07-05 16:49:00+00:00,325.7747,14.6,12.33,47.84626,-54.09684
2022-07-05 16:59:00+00:00,323.933,14.88,12.33,47.84626,-54.09684
2022-07-05 17:09:00+00:00,320.6547,15.55,12.33,47.84626,-54.09684
2022-07-05 17:19:00+00:00,319.463,15.99,12.33,47.84626,-54.09684
2022-07-05 17:29:00+00:00,316.8813,16.24,12.33,47.84626,-54.09684
2022-07-05 17:39:00+00:00,308.6346,16.55,12.33,47.84626,-54.09684
2022-07-05 17:49:00+00:00,306.5447,16.7,12.33,47.84626,-54.09684
2022-07-05 17:59:00+00:00,311.9747,16.79,12.33,47.84626,-54.09684
2022-07-05 18:09:00+00:00,306.4914,16.97,12.33,47.84626,-54.09684
2022-07-05 18:19:00+00:00,292.1081,17.29,12.17,47.84626,-54.09684
2022-07-05 18:29:00+00:00,290.098,17.4,12.17,47.84626,-54.09684
2022-07-05 18:39:00+00:00,294.5181,17.4,12.17,47.84626,-54.09684
2022-07-05 18:49:00+00:00,286.908,17.48,12.17,47.84626,-54.09684
2022-07-05 18:59:00+00:00,273.5714,17.5,12.17,47.84626,-54.09684
2022-07-05 19:09:00+00:00,273.6798,17.5,12.17,47.84626,-54.09684
2022-07-05 19:19:01+00:00,269.1564,17.4,12.17,47.84626,-54.09684
2022-07-05 19:29:01+00:00,255.9247,17.3,12.17,47.84626,-54.09684
2022-07-05 19:39:01+00:00,246.7947,17.19,12.17,47.84626,-54.09684
2022-07-05 19:49:01+00:00,246.4231,17.1,12.17,47.84626,-54.09684
2022-07-05 19:59:01+00:00,240.6698,17.07,12.17,47.84626,-54.09684
2022-07-05 20:09:01+00:00,231.5098,17.1,12.17,47.84626,-54.09684
2022-07-05 20:19:00+00:00,226.7915,17.1,12.17,47.84626,-54.09684
2022-07-05 20:29:00+00:00,223.7448,17.18,12.17,47.84626,-54.09684
2022-07-05 20:39:00+00:00,218.7631,17.13,12.17,47.84626,-54.09684
2022-07-05 20:49:00+00:00,213.0131,17.1,12.17,47.84626,-54.09684
2022-07-05 20:59:00+00:00,211.4814,17.0,12.17,47.84626,-54.09684
2022-07-05 21:09:00+00:00,210.6798,16.9,12.17,47.84626,-54.09684
2022-07-05 21:19:00+00:00,211.1698,16.8,12.09,47.84626,-54.09684
2022-07-05 21:29:00+00:00,211.3764,16.76,12.09,47.84626,-54.09684
2022-07-05 21:39:00+00:00,210.4214,16.72,12.09,47.84626,-54.09684
2022-07-05 21:49:00+00:00,209.6431,16.8,12.09,47.84626,-54.09684
2022-07-05 21:59:00+00:00,215.0265,16.89,12.09,47.84626,-54.09684
2022-07-05 22:09:00+00:00,219.9514,16.9,12.09,47.84626,-54.09684
2022-07-05 22:19:00+00:00,218.6898,16.93,12.09,47.84626,-54.09684
2022-07-05 22:29:00+00:00,219.3614,16.9,12.09,47.84626,-54.09684
2022-07-05 22:39:00+00:00,225.2597,16.88,12.09,47.84626,-54.09684
2022-07-05 22:49:00+00:00,229.0098,16.8,12.09,47.84626,-54.09684
2022-07-05 22:59:00+00:00,232.3348,16.8,12.09,47.84626,-54.09684
2022-07-05 23:09:00+00:00,235.2864,16.7,12.09,47.84626,-54.09684
2022-07-05 23:19:00+00:00,238.0631,16.7,12.09,47.84626,-54.09684
2022-07-05 23:29:00+00:00,240.3764,16.7,12.09,47.84626,-54.09684
2022-07-05 23:39:00+00:00,244.1431,16.7,12.09,47.84626,-54.09684
2022-07-05 23:49:00+00:00,246.4414,16.73,12.09,47.84626,-54.09684
2022-07-05 23:59:00+00:00,246.943,16.75,12.09,47.84626,-54.09684
